Location: Diati
(11.8376°N, 2.5966°E)
Time: 18:09:27
(UTC+00:00)

Cosmos 1943 - Pass Details

Date: 21 September 2020
Orbit: 833 x 850 km, 71.0° (Epoch: 19 October)

Event Time Altitude Azimuth Distance (km) Brightness Sun altitude
Rises 19:09:49 0° 343° (NNW) 3,391 6.6 -21.3°
Reaches altitude 10° 19:12:15 10° 343° (NNW) 2,459 5.9 -21.9°
Maximum altitude 19:17:54 88° 253° (WSW) 850 3.1 -23.3°
Enters shadow 19:21:43 22° 166° (SSE) 1,774 4.7 -24.2°
